Regional Weather Roundup
Issued by NWS Little Rock, AR

Home | Current Version | Previous Version | Graphics & Text | Print | Product List | Glossary On
Versions: 1 2 3 4 5 6 7 8 9 10 11 12 13 14 15 16 17 18 19 20 21 22 23 24 25 26 27 28 29 30 31 32 33 34 35 36 37 38 39 40 41 42 43 44 45 46 47 48 49 50
433
ASUS44 KLZK 041905
RWRLZK

WEATHER ROUNDUP FOR ARKANSAS
NATIONAL WEATHER SERVICE LITTLE ROCK AR
200 PM CDT WED MAY 04 2016

NOTE: "FAIR" INDICATES FEW OR NO CLOUDS BELOW 12,000 FEET WITH NO
SIGNIFICANT WEATHER AND/OR OBSTRUCTIONS TO VISIBILITY.

ARZ001-003-010-029-042000-
NORTHWEST ARKANSAS

CITY           SKY/WX    TMP DP  RH WIND       PRES   REMARKS
FAYETTEVILLE   SUNNY     72  45  37 NW17G28   29.93F
FORT SMITH     MOSUNNY   79  46  31 NW16G26   29.89F
HARRISON       SUNNY     71  39  31 NW18G26   29.90S
BENTONVILLE    SUNNY     72  37  28 N15G23    29.95F
ROGERS         SUNNY     70  39  32 N14G21    29.94F
SILOAM SPGS    SUNNY     72  41  33 N20G28    29.96S
HIGHFILL       SUNNY     74  41  30 N18G26    29.94S
SPRINGDALE     SUNNY     72  37  28 NW17G29   29.95F
$$

ARZ004-005-016-042000-
NORTH CENTRAL ARKANSAS

CITY           SKY/WX    TMP DP  RH WIND       PRES   REMARKS
BATESVILLE     MOSUNNY   77  45  31 NW9G21    29.82S
FLIPPIN        SUNNY    N/A N/A N/A NW12G20   29.84S
MTN HOME       SUNNY     73  38  27 N10G24    29.85F
$$

ARZ040-041-042000-
WEST CENTRAL ARKANSAS

CITY           SKY/WX    TMP DP  RH WIND       PRES   REMARKS
MENA           SUNNY     77  48  36 W16G26    29.93F
MOUNT IDA      SUNNY     78  48  34 NW10G18   29.87F
$$

ARZ009-017-025-026-028-042000-
NORTHEAST ARKANSAS

CITY           SKY/WX    TMP DP  RH WIND       PRES   REMARKS
CORNING          N/A     73  45  35 NW21      29.79S
JONESBORO      LGT RAIN  76  43  30 NW17G28   29.78S
NEWPORT        MOSUNNY   79  44  28 NW20G31   29.81R
WALNUT RIDGE   SUNNY     75  43  31 NW22      29.79S
BLYTHEVILLE    MOSUNNY   77  52  41 N24G33    29.77S
NW BLYTHEVILLE MOSUNNY   75  46  35 NW14G28   29.77S
$$

ARZ022-023-033-042-044-042000-
CENTRAL ARKANSAS

CITY           SKY/WX    TMP DP  RH WIND       PRES   REMARKS
LITTLE ROCK    MOSUNNY   81  48  31 NW16G31   29.84F
N LITTLE ROCK    N/A     77  50  38 NW9G22    29.83F
SEARCY         PTSUNNY   77  55  47 W9        29.82F
HOT SPRINGS    SUNNY     80  49  33 W12G20    29.87F
RUSSELLVILLE   MOSUNNY   78  51  38 W16G30    29.84F
CLINTON          N/A    N/A N/A N/A MISG        N/A
$$

ARZ036-042000-
EAST ARKANSAS

CITY           SKY/WX    TMP DP  RH WIND       PRES   REMARKS
WEST MEMPHIS   MOSUNNY   75  55  49 W9G23     29.78F
$$

ARZ050-053-066-070-073-042000-
SOUTHWEST ARKANSAS

CITY           SKY/WX    TMP DP  RH WIND       PRES   REMARKS
ARKADELPHIA    FAIR      79  56  45 NW15      29.88F
CAMDEN         SUNNY     79  46  31 W9G25     29.89F
TEXARKANA      SUNNY     78  49  35 NW16G26   29.93F
EL DORADO      MOSUNNY   77  50  38 W16G23    29.91F
DE QUEEN       MOSUNNY   78  52  40 NW10G21   29.91F
$$

ARZ056-057-069-042000-
SOUTHEAST ARKANSAS

CITY           SKY/WX    TMP DP  RH WIND       PRES   REMARKS
PINE BLUFF     SUNNY     78  48  34 W18G24    29.85F
STUTTGART      SUNNY     77  54  44 W21G30    29.83F
MONTICELLO     MOSUNNY   78  50  37 W20G28    29.86F

$$






USA.gov is the U.S. government's official web portal to all federal, state and local government web resources and services.